This is the latest recevied weather packets stored in our database for station/object KB3AWQ. If no packets are shown the sender has not sent any weather packets the latest 10 day(s).
| Time | Temp. | Humidity | Pressure | Rain* | Wind** | Luminosity | Snow |
|---|---|---|---|---|---|---|---|
| 1777902578 | 12.78° C | 62% | 1012.2 hPa | 0 mm | - | 516 W/m² | - |
| 1777902269 | 12.22° C | 64% | 1012.3 hPa | 0 mm | - | 660 W/m² | - |
| 1777901969 | 12.22° C | 63% | 1012.3 hPa | 0 mm | - | 624 W/m² | - |
| 1777901667 | 11.67° C | 63% | 1012.4 hPa | 0 mm | - | 583 W/m² | - |
| 1777901367 | 11.11° C | 65% | 1012.4 hPa | 0 mm | - | 555 W/m² | - |
| 1777901067 | 10.56° C | 67% | 1012.4 hPa | 0 mm | - | 534 W/m² | - |
| 1777900767 | 10.56° C | 67% | 1012.4 hPa | 0 mm | - | 517 W/m² | - |
| 1777900469 | 10.56° C | 67% | 1012.4 hPa | 0 mm | - | 500 W/m² | - |
| 1777900169 | 10° C | 69% | 1012.5 hPa | 0 mm | - | 489 W/m² | - |
| 1777899867 | 10° C | 68% | 1012.5 hPa | 0 mm | - | 472 W/m² | - |
| 1777899569 | 10° C | 70% | 1012.6 hPa | 0 mm | - | 457 W/m² | - |
| 1777899269 | 10° C | 69% | 1012.6 hPa | 0 mm | - | 442 W/m² | - |
| 1777898967 | 9.44° C | 69% | 1012.6 hPa | 0 mm | - | 426 W/m² | - |
| 1777898669 | 9.44° C | 72% | 1012.6 hPa | 0 mm | - | 408 W/m² | - |
| 1777898368 | 8.89° C | 73% | 1012.6 hPa | 0 mm | - | 389 W/m² | - |
| 1777898067 | 8.33° C | 75% | 1012.4 hPa | 0 mm | - | 373 W/m² | - |
| 1777897766 | 8.33° C | 74% | 1012.4 hPa | 0 mm | - | 362 W/m² | - |
| 1777897466 | 8.33° C | 75% | 1012.3 hPa | 0 mm | - | 289 W/m² | - |
| 1777897168 | 8.33° C | 75% | 1012.5 hPa | 0 mm | - | 258 W/m² | - |
| 1777896868 | 8.89° C | 75% | 1012.6 hPa | 0 mm | - | 262 W/m² | - |
| 1777896567 | 8.33° C | 76% | 1012.7 hPa | 0 mm | - | 348 W/m² | - |
| 1777896267 | 7.78° C | 79% | 1012.7 hPa | 0 mm | - | 376 W/m² | - |
| 1777895966 | 7.78° C | 79% | 1012.7 hPa | 0 mm | - | 291 W/m² | - |
| 1777895667 | 7.22° C | 78% | 1012.8 hPa | 0 mm | - | 146 W/m² | - |
| 1777895367 | 6.67° C | 81% | 1012.8 hPa | 0 mm | - | 255 W/m² | - |
* Rain latest hour (hover to see other rain measurements)
** Current wind speed in m/s (hover to see current wind gust speed)